Weather reports worldwide

Advertisment
Lyon/Bron, France (7480): temperature & dewpoint: 10.06.2019 13:00:00 - 16.06.2019 13:00:00 (CEST)Lyon/Bron, France (7480): temperature 5cm: 10.06.2019 13:00:00 - 16.06.2019 13:00:00 (CEST)Lyon/Bron, France (7480): temperature -20cm: 10.06.2019 13:00:00 - 16.06.2019 13:00:00 (CEST)Lyon/Bron, France (7480): wind speed & gusts: 10.06.2019 13:00:00 - 16.06.2019 13:00:00 (CEST)Lyon/Bron, France (7480): wind direction: 10.06.2019 13:00:00 - 16.06.2019 13:00:00 (CEST)Lyon/Bron, France (7480): reduced air pressure: 10.06.2019 13:00:00 - 16.06.2019 13:00:00 (CEST)Lyon/Bron, France (7480): visibility: 10.06.2019 13:00:00 - 16.06.2019 13:00:00 (CEST)Lyon/Bron, France (7480): sunshine duration: 10.06.2019 13:00:00 - 16.06.2019 13:00:00 (CEST)Lyon/Bron, France (7480): precipitation: 10.06.2019 13:00:00 - 16.06.2019 13:00:00 (CEST)
Date & Time tt [°C] td [°C] tt 5cm [°C] tt -20cm [°C] ff [km/h] ff [kn] fx [km/h] fx [kn] dd ppp [hPa] vv [km] sd [min] rr [mm]
16.06.2019 13:00:00 21,1 10,9 25,2 19,1 18 10 33 18 N 1021,2 38 50 0,0
16.06.2019 12:00:00 20,3 12,0 23,4 18,9 18 10 32 18 N 1021,6 36 54 0,0
16.06.2019 11:00:00 19,4 11,2 24,0 18,9 18 10 29 16 N 1021,8 31 60 0,0
16.06.2019 10:00:00 18,6 11,9 22,5 19,0 17 9 29 15 N 1022,0 24 60 0,0
16.06.2019 09:00:00 16,8 11,9 18,7 19,1 16 8 23 12 N 1022,5 27 60 0,0
16.06.2019 08:00:00 14,2 11,7 11,5 19,2 8 5 11 6 NNW 1022,5 21 60 0,0
16.06.2019 07:00:00 11,9 11,4 9,7 19,4 0 0 3 2 N 1022,6 10 12 0,0
16.06.2019 06:00:00 11,7 11,2 8,9 19,6 0 0 4 2 N 1022,3 8 0 0,0
16.06.2019 05:00:00 11,9 11,0 9,5 19,7 0 0 4 2 N 1022,1 12 0 0,0
16.06.2019 04:00:00 12,4 11,3 10,0 19,9 2 1 7 4 SE 1022,1 20 0 0,0
16.06.2019 03:00:00 13,0 11,1 10,6 20,0 2 1 10 5 WNW 1022,0 37 0 0,0
16.06.2019 02:00:00 13,8 11,5 11,9 20,1 7 4 10 6 NW 1021,8 43 0 0,2
16.06.2019 01:00:00 14,8 12,7 13,3 20,2 5 3 10 5 WNW 1021,6 41 0 0,0
16.06.2019 00:00:00 16,1 14,6 15,0 20,2 0 0 6 3 N 1021,4 35 0 0,0
15.06.2019 23:00:00 16,4 14,8 15,2 20,4 5 3 13 7 N 1021,3 19 0 0,2
15.06.2019 22:00:00 17,0 14,5 15,7 20,3 3 1 6 3 NW 1020,3 60 0 0,2
15.06.2019 21:00:00 17,4 13,7 17,1 20,3 3 2 11 6 E 1019,6 60 0 0,0
15.06.2019 20:00:00 18,2 13,7 18,4 20,3 6 3 10 5 SE 1019,3 60 23 0,0
15.06.2019 19:00:00 19,7 14,1 21,4 20,3 5 3 8 4 SE 1019,2 55 46 0,0
15.06.2019 18:00:00 17,9 14,0 15,3 20,4 2 1 21 12 NNW 1018,8 49 38 0,0
15.06.2019 17:00:00 15,4 14,3 14,7 20,5 15 8 26 14 E 1017,9 19 0 4,3
15.06.2019 16:00:00 15,3 14,0 14,3 20,5 24 13 45 24 NW 1019,5 2,8 0 5,8
15.06.2019 15:00:00 15,8 14,3 13,9 20,0 26 14 76 41 W 1017,0 0,4 0 16,0
15.06.2019 14:00:00 21,6 13,5 22,6 19,7 17 9 29 16 N 1015,7 56 14 0,0
15.06.2019 13:00:00 22,4 14,0 25,2 19,5 16 8 26 14 N 1015,8 32 21 0,0
15.06.2019 12:00:00 21,3 14,5 25,8 19,3 11 6 21 11 N 1016,9 60 48 0,0
15.06.2019 11:00:00 20,5 14,4 23,9 19,3 8 4 15 8 NNE 1017,1 29 29 0,0
15.06.2019 10:00:00 18,7 15,2 20,2 19,3 3 1 8 5 N 1017,4 40 0 0,0
15.06.2019 09:00:00 17,3 14,9 17,4 19,4 3 1 9 5 W 1017,5 20 20 0,0
15.06.2019 08:00:00 16,2 14,6 15,3 19,5 4 2 7 4 W 1016,8 30 24 0,0
15.06.2019 07:00:00 15,3 14,8 14,1 19,6 4 2 6 4 NNW 1016,2 20 0 0,0
15.06.2019 06:00:00 15,0 14,2 13,6 19,7 3 2 5 3 N 1016,0 20 0 0,0
15.06.2019 05:00:00 15,4 14,4 14,5 19,8 3 1 10 5 ESE 1015,7 12 0 0,4
15.06.2019 04:00:00 15,3 14,2 14,7 19,9 5 3 11 6 ESE 1015,5 46 0 0,2
15.06.2019 03:00:00 15,8 14,8 15,2 20,0 8 5 16 8 NE 1015,6 38 0 1,2
15.06.2019 02:00:00 15,9 14,9 15,0 20,1 7 4 14 8 SE 1014,7 20 0 0,8
15.06.2019 01:00:00 16,1 15,0 15,4 20,2 11 6 43 23 WNW 1015,1 5 0 7,3
15.06.2019 00:00:00 18,3 14,4 17,8 20,3 16 9 23 13 WNW 1013,2 43 0 0,0
14.06.2019 23:00:00 18,9 15,2 17,8 20,3 9 5 11 6 NW 1012,6 40 0 0,0
14.06.2019 22:00:00 19,1 15,4 18,2 20,3 6 3 10 6 NE 1010,9 39 0 0,0
14.06.2019 21:00:00 19,7 15,1 18,8 20,2 7 4 27 15 N 1010,3 44 0 0,0
14.06.2019 20:00:00 20,9 14,8 20,8 20,1 11 6 29 16 N 1009,3 45 2 0,0
14.06.2019 19:00:00 20,3 14,2 21,3 19,9 17 9 27 15 N 1009,2 49 0 0,0
14.06.2019 18:00:00 20,6 15,8 22,4 19,6 14 8 22 12 NW 1010,0 25 4 0,0
14.06.2019 17:00:00 21,3 15,8 23,7 19,3 11 6 18 10 WNW 1010,4 32 40 0,0
14.06.2019 16:00:00 21,4 14,5 25,5 19,2 6 3 15 8 NNW 1011,5 20 41 0,0
14.06.2019 15:00:00 19,4 14,4 24,3 19,1 8 4 15 8 NW 1012,3 21 38 0,0
14.06.2019 14:00:00 17,1 14,6 15,2 19,1 10 5 17 9 N 1013,5 19 4 0,0
14.06.2019 13:00:00 15,3 14,3 14,7 19,2 5 3 11 6 WSW 1015,7 7 0 0,8
14.06.2019 12:00:00 15,3 14,2 14,2 19,3 8 4 15 8 WNW 1015,4 6 0 2,2
14.06.2019 11:00:00 15,3 13,7 14,4 19,4 8 4 19 11 E 1015,5 6 0 1,8
14.06.2019 10:00:00 16,2 13,1 14,4 19,5 12 7 21 11 E 1016,4 11 0 0,4
14.06.2019 09:00:00 16,4 12,9 14,4 19,6 6 4 22 12 ESE 1016,3 22 0 0,6
14.06.2019 08:00:00 17,7 11,3 15,4 19,7 4 2 9 5 S 1015,3 26 0 0,0
14.06.2019 07:00:00 16,9 10,0 14,1 19,8 4 2 11 6 WNW 1013,3 22 0 0,0
14.06.2019 06:00:00 17,3 8,7 15,1 20,0 2 1 11 6 WSW 1012,7 54 0 0,0
14.06.2019 05:00:00 18,2 8,5 15,5 20,2 0 0 9 5 N 1012,5 45 0 0,0
14.06.2019 04:00:00 17,7 9,1 15,1 20,3 4 2 12 6 E 1012,3 50 0 0,0
14.06.2019 03:00:00 17,7 9,3 15,3 20,5 8 4 14 8 SE 1012,5 44 0 0,0
14.06.2019 02:00:00 18,5 8,7 15,4 20,7 4 2 22 12 NE 1012,9 60 0 0,0
14.06.2019 01:00:00 20,1 8,1 16,2 20,8 10 6 19 10 SSE 1012,8 60 0 0,0
14.06.2019 00:00:00 20,8 7,1 16,8 21,0 8 4 23 12 S 1012,8 59 0 0,0
13.06.2019 23:00:00 22,0 5,4 18,9 21,1 16 8 21 12 S 1012,5 60 0 0,0
13.06.2019 22:00:00 22,1 5,9 17,7 21,1 11 6 15 8 S 1012,3 60 0 0,0
13.06.2019 21:00:00 24,7 4,4 23,6 21,1 13 7 44 24 S 1011,5 53 49 0,0
13.06.2019 20:00:00 26,1 2,1 27,3 21,0 25 14 50 27 S 1011,0 29 60 0,0
13.06.2019 19:00:00 26,8 4,5 29,8 20,8 23 12 50 27 S 1010,8 27 60 0,0
13.06.2019 18:00:00 26,9 4,0 30,3 20,5 29 16 48 26 S 1011,2 30 60 0,0
13.06.2019 17:00:00 26,5 6,0 30,3 20,0 29 15 49 26 S 1011,5 29 60 0,0
13.06.2019 16:00:00 26,4 5,9 30,5 19,6 18 10 42 23 S 1012,1 31 60 0,0
13.06.2019 15:00:00 25,2 3,2 30,1 19,1 24 13 44 24 S 1012,8 36 60 0,0
13.06.2019 14:00:00 24,4 5,2 30,2 18,7 13 7 31 17 S 1013,4 25 60 0,0
13.06.2019 13:00:00 23,5 5,4 29,0 18,3 14 8 25 13 SSE 1013,9 49 60 0,0
13.06.2019 12:00:00 22,2 6,8 26,4 18,1 11 6 21 11 SSE 1014,4 52 60 0,0
13.06.2019 11:00:00 20,2 8,2 26,0 18,1 9 5 17 9 SSE 1015,0 51 60 0,0
13.06.2019 10:00:00 18,0 7,7 22,4 18,2 5 3 11 6 SSW 1015,6 28 60 0,0
13.06.2019 09:00:00 15,9 8,4 18,8 18,3 6 4 10 5 S 1015,7 28 60 0,0
13.06.2019 08:00:00 13,0 8,1 9,0 18,5 4 2 6 3 S 1015,8 34 60 0,0
13.06.2019 07:00:00 9,9 8,2 6,4 18,8 4 2 5 3 S 1016,0 19 34 0,0
13.06.2019 06:00:00 9,3 7,4 6,4 18,9 0 0 11 6 N 1015,7 20 0 0,0
13.06.2019 05:00:00 10,4 7,6 7,3 19,2 8 4 10 5 SSE 1015,5 20 0 0,0
13.06.2019 04:00:00 10,8 8,0 7,4 19,4 6 3 8 5 SE 1015,6 19 0 0,0
13.06.2019 03:00:00 11,7 8,4 8,1 19,6 4 2 8 4 S 1015,7 46 0 0,0
13.06.2019 02:00:00 13,5 8,1 9,5 19,8 6 3 10 5 S 1015,5 59 0 0,0
13.06.2019 01:00:00 13,8 7,1 10,0 19,9 7 4 9 5 SSW 1015,4 60 0 0,0
13.06.2019 00:00:00 15,5 6,2 10,4 20,1 5 3 11 6 SW 1014,9 60 0 0,0
12.06.2019 23:00:00 17,0 5,6 13,1 20,2 7 4 18 10 W 1014,3 60 0 0,0
12.06.2019 22:00:00 18,7 4,5 16,2 20,2 9 5 27 15 WNW 1013,4 48 3 0,0
12.06.2019 21:00:00 20,6 4,2 20,2 20,1 13 7 30 16 W 1012,5 57 51 0,0
12.06.2019 20:00:00 21,6 5,5 21,5 20,0 18 10 28 15 W 1011,8 54 29 0,0
12.06.2019 19:00:00 22,3 8,0 21,6 19,8 11 6 24 13 WSW 1011,4 53 29 0,0
12.06.2019 18:00:00 21,7 7,9 22,4 19,4 14 7 31 17 SW 1011,5 60 24 0,0
12.06.2019 17:00:00 22,2 7,6 22,7 19,0 13 7 29 15 SSW 1011,5 48 35 0,0
12.06.2019 16:00:00 21,7 7,9 23,6 18,5 12 7 27 14 S 1011,5 60 32 0,0
12.06.2019 15:00:00 21,2 8,1 24,7 18,0 9 5 27 15 SSW 1011,5 52 53 0,0
12.06.2019 14:00:00 20,4 8,4 22,7 17,6 9 5 34 19 SSW 1011,8 20 54 0,0
12.06.2019 13:00:00 19,0 7,4 23,4 17,2 13 7 32 17 SSW 1012,4 59 53 0,0
12.06.2019 12:00:00 18,1 7,5 21,0 17,1 14 7 28 15 S 1012,7 58 55 0,0
12.06.2019 11:00:00 16,8 9,2 20,4 17,0 11 6 27 14 S 1012,7 60 58 0,0
12.06.2019 10:00:00 15,4 10,0 18,4 17,0 14 8 22 12 S 1013,0 47 60 0,0
12.06.2019 09:00:00 13,3 10,7 14,0 17,1 9 5 16 8 S 1013,4 48 30 0,0
12.06.2019 08:00:00 12,5 11,4 10,4 17,2 9 5 16 9 S 1013,1 39 47 0,0
12.06.2019 07:00:00 10,9 10,4 8,8 17,3 3 2 8 4 SE 1013,0 4,3 26 0,0
12.06.2019 06:00:00 10,9 10,1 9,8 17,4 5 3 9 5 ESE 1013,0 14 0 0,0
12.06.2019 05:00:00 11,4 10,8 10,7 17,6 4 2 6 3 ESE 1012,9 17 0 2,0
12.06.2019 04:00:00 11,3 10,4 10,8 17,7 5 3 14 8 S 1012,7 3,1 0 2,2
12.06.2019 03:00:00 12,3 11,7 11,7 17,8 6 3 9 5 S 1012,4 4,8 0 1,4
12.06.2019 02:00:00 12,3 11,4 11,7 17,9 3 1 25 14 SSW 1011,8 4,2 0 2,4
12.06.2019 01:00:00 12,7 11,9 12,1 18,0 3 1 11 6 ENE 1011,6 16 0 0,6
12.06.2019 00:00:00 12,7 11,9 12,2 18,1 7 4 17 9 SW 1012,1 12 0 0,4
11.06.2019 23:00:00 12,9 12,0 12,3 18,1 9 5 18 10 S 1012,2 20 0 3,5
11.06.2019 22:00:00 13,9 12,9 13,3 18,2 10 6 18 10 SSW 1011,9 2,7 0 2,0
11.06.2019 21:00:00 14,2 13,1 13,5 18,2 6 4 12 7 E 1011,5 10 0 0,4
11.06.2019 20:00:00 14,4 12,6 14,1 18,1 8 5 12 7 E 1011,3 25 0 0,0
11.06.2019 19:00:00 14,9 12,2 15,3 18,1 4 2 10 6 E 1011,2 27 0 0,0
11.06.2019 18:00:00 14,5 11,8 13,8 18,0 6 3 10 5 ESE 1011,5 23 0 0,0
11.06.2019 17:00:00 14,5 11,8 13,5 17,9 5 3 10 5 E 1011,7 15 0 0,4
11.06.2019 16:00:00 14,6 11,9 14,1 17,9 7 4 10 5 E 1011,9 12 0 0,0
11.06.2019 15:00:00 14,8 11,4 14,9 17,8 3 2 8 5 NNE 1011,7 20 0 0,2
11.06.2019 14:00:00 14,5 10,7 15,3 17,7 5 3 10 6 NNE 1011,9 36 0 0,0
11.06.2019 13:00:00 14,6 10,8 14,8 17,6 5 3 11 6 NE 1012,1 37 0 0,2
11.06.2019 12:00:00 13,8 10,6 14,4 17,7 9 5 14 8 N 1012,3 31 0 0,0
11.06.2019 11:00:00 13,6 11,1 12,9 17,7 8 5 12 7 NNW 1012,3 30 0 0,0
11.06.2019 10:00:00 13,1 10,8 12,9 17,8 7 4 13 7 NW 1012,2 35 1 0,2
11.06.2019 09:00:00 12,8 11,4 12,3 17,8 6 3 11 6 NW 1012,2 11 0 0,2
11.06.2019 08:00:00 12,8 11,9 12,4 17,9 8 5 12 7 WNW 1011,7 18 0 0,0
11.06.2019 07:00:00 12,4 11,6 12,0 18,0 5 3 8 4 W 1012,1 17 0 0,2
11.06.2019 06:00:00 12,3 11,5 11,7 18,1 2 1 4 2 E 1012,1 11 0 0,0
11.06.2019 05:00:00 12,3 11,5 11,7 18,2 0 0 5 3 N 1012,5 14 0 0,0
11.06.2019 04:00:00 12,5 11,6 11,8 18,2 3 1 5 3 S 1013,3 16 0 0,2
11.06.2019 03:00:00 12,9 12,1 12,0 18,3 3 2 6 3 SSE 1013,7 6 0 0,8
11.06.2019 02:00:00 12,8 11,4 11,9 18,4 3 2 7 4 SSW 1014,0 16 0 0,0
11.06.2019 01:00:00 12,5 10,7 11,9 18,5 3 2 7 4 WSW 1014,5 32 0 0,0
11.06.2019 00:00:00 12,5 10,7 11,9 18,6 5 3 7 4 W 1014,3 38 0 0,0
10.06.2019 23:00:00 12,6 10,1 11,9 18,7 4 2 8 5 NNW 1014,8 58 0 0,0
10.06.2019 22:00:00 13,0 11,7 12,1 18,7 4 2 6 4 E 1014,6 1,2 0 0,0
10.06.2019 21:00:00 12,9 10,6 12,0 18,7 0 0 8 5 N 1015,0 1,7 0 0,8
10.06.2019 20:00:00 13,2 10,9 12,4 18,8 4 2 16 8 NNW 1014,9 51 0 0,2
10.06.2019 19:00:00 13,8 12,4 13,6 18,7 10 6 20 11 WNW 1014,7 11 0 0,4
10.06.2019 18:00:00 14,4 13,3 14,0 18,7 12 6 36 19 N 1014,6 4,6 0 1,6
10.06.2019 17:00:00 16,5 14,7 16,1 18,6 6 4 11 6 NNE 1014,0 16 3 0,2
10.06.2019 16:00:00 16,5 15,4 15,9 18,6 4 2 10 5 NNE 1013,9 18 0 0,0
10.06.2019 15:00:00 16,1 14,6 15,3 18,6 5 3 9 5 N 1014,3 14 0 1,1
10.06.2019 14:00:00 15,7 14,2 15,2 18,6 0 0 7 4 N 1014,7 8 0 0,6
10.06.2019 13:00:00 16,0 15,2 15,5 18,6 4 2 13 7 NNE 1014,4 5 0 1,8

tt = temperature
td = dewpoint
tt 5cm = temperature 5cm
tt -20cm = temperature -20cm
ff = wind speed
fx = gusts
dd = wind direction
ppp = reduced air pressure
vv = visibility
sd = sunshine duration
rr = precipitation

Next stations